This demonstration page uses our WeatherBlox Daily Observations layout. Learn more.

Left ArrowRight Arrow

41.86663, -103.66717

Hourly Observations for May 22, 2021

Temp ( °F °C ) Dew Point ( °F °C ) Humidity (%) Winds ( mph kmh ) Pressure ( in mb ) Visibility ( mi km ) Precip ( " mm )
12:41 am 00:41 Cloudy 50 10 47 8.3 89 89 N 6 9 30.03 1017 10 16 0.00 0.00
12:53 am 00:53 Cloudy 50 10 47 8.3 89 89 NNW 3 6 30.00 1016 10 16 0.00 0.00
1:53 am 01:53 Cloudy 50 10 48 8.9 93 93 WNW 6 9 30.01 1016 10 16 0.00 0.00
2:53 am 02:53 Cloudy 50 10 47 8.3 89 89 NW 7 11 30.02 1017 10 16 0.00 0.00
3:53 am 03:53 Cloudy 49 9.4 47 8.3 93 93 NW 9 15 30.02 1017 10 16 0.00 0.00
4:53 am 04:53 Cloudy 48 8.9 46 7.8 93 93 NW 9 15 30.04 1017 10 16 0.00 0.00
5:53 am 05:53 Cloudy 46 7.8 44 6.7 93 93 NNW 8 13 30.10 1019 10 16 0.00 0.00
6:53 am 06:53 Cloudy 47 8.3 45 7.2 93 93 NW 7 11 30.15 1021 10 16 0.00 0.00
7:53 am 07:53 Cloudy 47 8.3 45 7.2 93 93 NW 3 6 30.18 1022 10 16 0.00 0.00
8:53 am 08:53 Cloudy with Mist and Fog 48 8.9 46 7.8 93 93 N 8 13 30.19 1022 4 6 0.00 0.00
9:53 am 09:53 Cloudy 48 8.9 46 7.8 93 93 NW 7 11 30.22 1023 9 14 0.00 0.00
10:53 am 10:53 Cloudy 50 10 47 8.3 89 89 N 8 13 30.21 1023 9 14 0.00 0.00
11:53 am 11:53 Cloudy 50 10 47 8.3 89 89 ENE 7 11 30.21 1023 10 16 0.00 0.00
12:53 pm 12:53 Cloudy 51 10.6 47 8.3 86 86 ENE 9 15 30.19 1023 10 16 0.00 0.00
1:53 pm 13:53 Cloudy 52 11.1 48 8.9 86 86 ENE 6 9 30.18 1022 10 16 0.00 0.00
2:53 pm 14:53 Cloudy 51 10.6 48 8.9 89 89 NE 10 17 30.15 1021 10 16 0.00 0.00
3:53 pm 15:53 Cloudy with Mist and Fog 50 10 48 8.9 93 93 ENE 14 22 30.15 1021 3 5 0.00 0.00
4:02 pm 16:02 Cloudy with Mist and Fog 50 10 49 9.4 96 96 ENE 10 17 30.13 1020 3 4 0.00 0.00
4:13 pm 16:13 Cloudy with Mist and Fog 50 10 48 8.9 93 93 ENE 13 20 30.12 1020 5 8 0.00 0.00
4:53 pm 16:53 Cloudy with Mist and Fog 49 9.4 48 8.9 97 97 E 14 22 30.16 1021 2 3 0.00 0.00
5:02 pm 17:02 Cloudy with Mist and Fog 48 9 46 8 94 94 ENE 14 22 30.13 1020 2 3 0.00 0.00
5:10 pm 17:10 Cloudy with Mist and Fog 48 9 48 9 100 100 NE 15 24 30.13 1020 3 4 0.00 0.00
5:17 pm 17:17 Cloudy with Mist and Fog 49 9.4 47 8.3 93 93 NE 13 20 30.12 1020 6 10 0.00 0.00
5:53 pm 17:53 Cloudy 50 10 47 8.3 89 89 NE 6 9 30.15 1021 10 16 0.00 0.00
6:53 pm 18:53 Cloudy 50 10 48 8.9 93 93 NNE 5 7 30.14 1021 10 16 0.00 0.00
7:53 pm 19:53 Cloudy 51 10.6 49 9.4 92 92 ENE 7 11 30.11 1020 10 16 0.00 0.00
8:07 pm 20:07 Cloudy 51 10.6 49 9.4 92 92 ENE 8 13 30.08 1019 10 16 0.00 0.00
8:18 pm 20:18 Cloudy 51 10.6 49 9.4 92 92 ENE 13 20 30.07 1018 10 16 0.00 0.00
8:53 pm 20:53 Cloudy 51 10.6 50 10 96 96 ENE 14 22 30.10 1019 10 16 0.00 0.00
9:53 pm 21:53 Cloudy with Light Rain 50 10 49 9.4 96 96 ENE 9 15 30.11 1020 10 16 0.00 0.00
10:23 pm 22:23 Cloudy with Light Rain 50 10 50 10 100 100 ENE 9 15 30.07 1018 7 11 0.02 0.51
10:32 pm 22:32 Cloudy with Light Rain 52 11 50 10 94 94 ESE 5 7 30.07 1018 10 16 0.00 0.00
10:53 pm 22:53 Mostly Cloudy 52 11.1 50 10 93 93 Calm 30.09 1019 10 16 0.02 0.51
11:32 pm 23:32 Cloudy 52 11 50 10 94 94 E 5 7 30.07 1018 10 16 0.00 0.00
11:43 pm 23:43 Cloudy 51 10.6 50 10 96 96 NE 3 6 30.07 1018 10 16 0.00 0.00
11:53 pm 23:53 Cloudy 52 11.1 50 10 93 93 NE 5 7 30.08 1019 10 16 0.00 0.00

Powered by AerisWeather